Wind_Speed
8 8 7 7 6 5 6 6 7 7 8 8 9 9 10 11 13 13 14 15 15 15 15 15 15 14 14 14 14 14 13 13 14 13 14 17 21 22 21 21 20 18 16 13 10 8 7 6 5 4 3 1 1 2 4 4 3 3 4 5 6 6 9 12 12 11 13 18 19 18 18 17 16 15 15 15 13 13 12 10 10 10 14 17 16 18 21 19
8 7 7 7 7 6 6 6 7 7 8 9 9 10 10 11 12 13 14 15 15 16 16 15 15 15 15 15 15 15 14 14 14 14 16 19 20 20 20 20 20 18 16 12 9 8 7 5 5 4 4 2 1 2 4 4 4 2 4 7 5 4 8 12 11 12 14 18 20 19 18 16 15 14 14 14 13 13 12 12 11 13 17 17 16 19 20 19
8 7 7 6 6 6 6 5 5 6 7 8 9 10 11 11 12 12 13 14 16 16 16 16 15 15 15 15 15 15 15 14 14 16 18 19 18 18 18 18 19 18 15 12 11 10 9 8 7 6 5 4 3 3 3 3 4 2 5 8 5 5 9 11 12 13 14 17 20 19 17 16 14 13 13 13 12 12 10 9 11 14 17 17 17 19 20 20
8 8 7 6 6 6 6 6 6 5 6 6 7 8 9 11 12 13 13 14 15 16 17 17 16 16 15 15 15 15 15 15 16 17 19 19 17 17 16 17 18 17 15 14 14 14 13 12 10 9 7 4 4 4 3 3 4 2 5 6 5 7 10 11 13 13 14 16 17 18 16 14 14 13 14 12 11 12 11 9 9 11 14 15 17 19 19 19
9 8 7 6 6 6 6 6 7 7 6 6 6 6 7 9 11 14 15 15 15 16 17 17 17 16 15 16 15 16 14 12 16 18 19 18 16 15 15 16 18 17 16 16 17 16 15 14 13 11 9 5 4 4 2 3 6 2 3 5 6 8 10 12 14 13 14 16 15 15 14 14 14 14 15 12 9 11 14 14 11 10 12 14 16 18 18 18
9 8 7 7 6 6 6 6 7 7 8 7 6 6 6 7 8 12 15 16 16 15 16 17 18 17 16 16 15 16 15 13 17 19 19 18 16 15 15 17 18 18 18 18 19 17 16 16 14 13 10 7 5 5 3 4 6 3 1 5 7 9 10 12 13 13 14 15 15 14 13 14 14 15 16 12 10 11 14 15 12 12 14 15 16 17 17 18
9 8 7 6 6 6 6 7 7 8 9 9 8 7 6 6 6 9 12 15 17 16 16 16 17 18 17 16 15 16 17 17 17 18 20 18 16 16 17 18 18 18 19 19 19 17 17 17 15 14 11 7 7 6 5 4 6 6 3 5 8 9 11 12 13 13 14 15 15 14 12 13 14 17 17 13 11 13 15 15 11 13 16 16 16 17 17 18
8 8 7 7 7 7 8 9 9 9 10 10 10 9 7 6 6 7 10 12 16 17 16 16 16 17 17 17 16 15 17 19 17 17 20 18 18 19 19 19 18 18 19 18 18 17 18 17 16 15 9 8 8 6 6 5 5 7 5 6 9 9 11 13 13 13 14 15 14 13 13 12 13 16 16 13 13 14 16 14 12 14 17 17 17 18 18 19
8 8 7 8 8 10 11 12 12 11 12 12 12 11 9 8 7 7 8 10 13 15 17 16 16 17 17 17 16 14 17 19 17 17 19 19 19 20 19 18 16 17 18 19 19 18 18 17 17 16 10 11 10 6 7 6 3 6 8 8 10 10 11 13 13 13 14 14 14 14 14 14 14 14 14 14 14 16 16 14 14 16 18 17 17 18 18 18
8 8 8 9 10 11 12 13 12 12 12 12 12 12 11 9 8 7 8 9 10 13 16 17 16 16 16 17 15 13 17 19 18 17 19 20 21 21 20 18 16 16 17 19 19 19 20 18 18 17 13 11 10 6 7 6 5 8 8 9 11 10 11 13 14 14 14 14 15 16 15 14 14 12 13 15 16 17 16 14 16 18 18 18 18 18 18 17
9 10 10 11 11 12 12 11 11 11 11 11 11 11 11 10 9 8 8 8 8 10 14 17 17 15 15 16 15 15 18 19 19 18 18 21 22 22 21 19 17 16 17 18 19 20 21 21 20 17 11 8 7 6 7 7 8 9 7 7 10 10 10 13 14 14 15 14 15 17 16 16 14 11 13 18 18 17 15 14 18 19 18 18 18 18 18 17
11 11 11 11 10 10 10 10 11 10 10 9 9 9 10 10 9 8 8 7 7 7 11 15 16 16 14 14 16 17 18 18 19 18 18 21 23 23 23 21 20 18 17 18 19 20 22 23 22 17 11 9 5 4 7 8 9 9 8 6 8 10 10 13 15 14 15 15 17 17 15 14 12 12 16 18 18 18 15 15 18 20 19 19 19 19 18 17
12 11 11 10 10 10 10 10 11 11 11 10 9 8 8 8 9 8 8 7 7 6 8 12 15 15 14 13 15 17 17 18 19 18 18 20 23 24 24 23 22 21 20 19 20 21 22 23 23 19 16 12 7 7 9 10 10 8 7 7 7 9 9 12 15 14 15 15 18 18 13 13 12 14 18 18 18 18 16 17 19 20 20 19 20 19 18 18
11 11 10 10 11 11 11 11 11 12 12 12 11 9 8 7 7 7 7 6 6 5 7 10 13 14 14 13 14 16 18 18 19 17 17 19 21 24 25 24 23 22 22 22 23 24 23 24 24 20 18 15 10 8 8 9 10 7 7 8 9 8 9 12 13 14 16 14 18 17 13 15 15 16 19 19 18 17 16 18 20 21 21 20 21 19 18 17
10 10 10 11 12 12 12 12 12 13 13 13 12 10 9 7 5 6 7 7 6 6 6 9 11 12 12 13 14 16 18 18 18 18 17 18 20 21 23 24 23 21 21 21 23 24 24 24 23 19 16 17 14 8 6 9 9 8 9 9 10 8 7 12 13 14 16 16 18 16 12 16 17 18 19 19 19 17 16 19 21 21 21 21 21 19 18 17
9 10 11 13 13 13 13 14 14 14 13 12 11 9 7 5 4 5 7 7 7 6 6 7 9 10 10 12 14 16 17 18 18 18 17 17 19 20 22 23 22 21 20 20 21 22 24 24 23 22 17 15 12 8 7 10 9 10 11 8 8 8 7 11 12 13 15 16 18 15 12 15 17 18 19 19 20 18 17 19 21 22 21 21 21 19 18 18
9 11 13 13 14 14 15 15 15 13 12 9 7 5 3 3 4 5 7 8 7 7 6 7 8 9 9 11 13 15 18 18 18 18 17 17 18 19 21 22 22 21 19 19 19 21 23 24 24 22 19 14 10 10 11 12 11 11 10 7 6 7 8 11 11 13 15 15 17 16 14 15 17 19 19 20 20 18 18 20 21 22 22 21 20 19 18 18
10 12 14 14 14 15 15 15 13 11 9 7 5 3 0 2 4 6 7 7 6 5 4 5 7 8 8 11 13 15 18 18 18 18 18 17 17 17 19 21 21 21 20 18 18 21 22 23 22 16 15 15 12 14 13 10 10 11 10 8 6 6 7 9 10 11 14 15 15 16 14 12 14 17 18 19 20 19 19 20 22 22 22 21 20 19 18 17
11 13 14 15 15 15 15 13 11 9 7 5 4 4 3 2 2 3 6 6 5 4 2 4 9 8 7 12 14 16 17 18 18 18 18 17 16 15 17 19 19 19 19 17 18 22 22 21 20 14 14 16 15 15 11 5 6 10 10 7 5 8 7 7 7 8 12 13 14 16 15 11 12 15 17 19 20 19 19 21 22 23 22 21 20 19 19 18
11 14 15 14 14 14 13 11 9 8 6 4 4 5 5 5 4 3 3 4 4 5 4 6 11 11 9 12 15 16 16 16 16 16 17 17 16 15 15 17 19 18 17 16 16 22 23 19 19 18 15 15 15 14 9 4 4 8 10 6 4 6 6 5 5 7 10 11 13 17 17 13 12 13 16 19 20 21 21 22 23 23 23 22 21 20 19 18
12 14 14 14 14 13 11 10 8 7 6 5 4 5 5 5 5 3 2 1 2 5 6 6 11 12 10 13 16 17 16 14 14 14 15 16 15 14 15 17 18 19 17 15 15 22 23 18 19 19 15 13 14 13 9 4 4 7 10 8 6 6 4 4 4 6 8 8 10 16 17 16 13 12 15 18 20 22 22 23 24 24 23 22 22 21 20 20
12 14 14 13 12 11 10 8 7 8 8 8 7 7 7 6 6 3 3 3 1 3 5 6 10 10 10 13 16 18 17 14 13 13 12 14 15 13 15 17 17 17 18 17 17 21 22 19 18 17 17 16 15 15 11 5 4 7 10 9 8 7 5 5 5 6 8 8 9 14 17 15 14 13 14 16 19 21 21 23 24 24 23 22 22 22 21 21
12 13 13 12 10 8 8 8 9 10 11 11 10 10 9 8 7 4 6 5 2 3 6 7 11 10 10 14 17 17 14 12 13 13 11 12 14 15 16 17 16 16 20 20 19 21 20 19 17 17 20 18 15 15 11 7 7 7 9 10 9 9 7 6 6 9 10 8 8 13 15 13 13 14 16 17 17 19 21 22 23 23 23 22 22 22 22 22
12 12 11 9 7 8 10 11 12 13 13 13 12 11 10 9 8 8 10 9 6 7 9 10 11 12 13 15 18 16 12 11 11 11 12 12 12 14 15 15 15 16 20 20 20 20 17 15 16 19 21 16 11 13 11 9 10 8 9 9 8 9 7 4 6 10 10 9 9 12 13 12 14 15 17 17 15 18 22 23 23 24 23 22 22 23 22 22
11 11 9 7 9 12 13 14 14 14 14 13 12 11 10 9 9 13 15 11 9 9 8 9 9 9 11 14 17 16 11 11 10 9 11 12 11 11 12 15 16 15 19 20 20 19 15 16 18 18 20 15 11 13 12 11 11 9 10 8 5 8 7 5 7 8 10 11 12 13 10 9 13 15 16 17 17 19 22 25 25 24 24 24 23 24 23 22
10 8 7 10 13 14 14 15 14 13 12 11 11 10 10 9 11 16 14 9 9 8 5 6 6 6 8 11 16 15 11 11 11 9 10 11 11 11 12 16 15 13 17 19 17 16 12 17 19 16 16 16 13 13 13 13 10 8 11 10 5 5 6 7 8 9 10 9 11 14 10 5 10 16 17 17 19 20 22 26 27 25 25 25 24 24 24 23
8 6 10 13 13 13 14 13 11 11 10 9 9 9 9 9 12 15 10 7 8 7 5 3 3 6 8 10 16 14 9 12 12 10 10 10 10 11 12 15 13 11 16 17 15 14 11 12 16 15 14 15 16 15 13 15 11 5 7 9 6 5 6 7 8 9 9 5 6 13 13 7 8 13 18 19 20 21 23 26 27 27 27 27 26 25 24 24
5 8 12 13 13 12 12 11 10 10 8 7 6 7 8 9 11 10 4 4 7 6 4 4 5 10 11 11 14 9 5 9 10 12 12 8 9 10 9 13 13 10 15 17 13 11 12 13 13 13 14 15 18 15 12 15 14 6 4 7 7 6 5 6 8 7 6 5 5 11 13 8 6 8 15 18 21 23 25 27 29 29 28 27 27 25 24 24
4 10 11 12 12 11 11 10 9 8 6 5 5 7 8 10 10 5 1 3 7 5 5 7 8 11 13 11 9 5 6 7 7 11 12 8 10 11 7 11 13 9 12 17 12 6 10 16 14 13 14 13 15 14 12 15 14 8 5 8 8 7 5 5 6 6 6 7 8 10 12 8 4 9 14 17 21 25 25 26 28 29 29 28 28 26 24 24
6 10 11 11 10 10 10 9 9 8 8 8 9 9 10 10 7 2 2 5 7 5 6 7 6 10 12 8 7 7 9 8 5 10 13 9 8 9 8 11 11 8 9 14 14 6 6 13 15 16 15 12 12 11 13 16 14 9 8 10 9 8 6 4 4 4 5 8 9 8 12 10 5 6 10 15 18 21 24 25 28 29 28 29 28 27 25 24
7 11 10 10 9 9 9 8 8 8 10 11 11 11 10 8 2 2 5 6 4 3 5 5 6 9 10 7 8 10 9 8 9 11 12 11 9 7 8 10 10 10 9 11 14 11 8 10 12 14 15 14 12 11 13 15 14 12 11 13 11 9 9 8 6 3 5 7 6 6 9 10 8 3 6 11 13 17 23 25 28 30 29 29 29 27 26 25
9 11 10 9 9 8 8 8 6 6 8 9 10 10 7 4 5 6 6 4 2 2 3 5 6 7 7 6 8 10 8 8 10 11 10 11 11 9 9 9 10 12 10 12 13 12 13 14 12 13 14 15 14 13 13 14 15 16 15 17 16 10 9 10 9 7 7 7 4 4 7 10 9 4 5 8 7 11 19 23 26 30 30 29 29 28 27 26
10 12 10 9 8 7 7 7 6 6 7 7 9 9 3 1 6 7 4 2 1 3 5 7 6 5 7 8 8 9 7 6 9 10 9 10 10 9 9 6 8 9 7 9 12 10 12 14 15 15 14 17 18 16 16 15 18 21 19 20 19 11 8 8 9 8 8 8 7 5 6 8 7 6 9 12 9 6 11 16 22 28 30 29 28 28 28 27
11 12 10 9 7 7 7 6 6 6 6 7 7 5 3 3 6 5 4 4 3 4 6 7 7 7 7 7 9 11 7 5 7 8 9 10 9 9 9 7 8 8 3 5 8 9 10 10 15 20 16 17 21 19 15 15 19 22 20 20 20 15 10 8 8 8 8 8 8 8 7 6 6 9 11 13 13 10 7 10 18 26 28 27 27 27 27 27
12 13 10 9 7 7 6 5 6 5 5 7 6 3 2 5 5 4 5 4 3 3 6 7 7 8 8 7 9 10 6 5 7 8 8 9 8 7 8 7 7 7 5 6 6 7 8 6 8 17 16 15 21 21 15 13 17 20 19 20 22 20 15 11 8 8 10 8 8 10 8 5 5 9 10 8 9 11 8 9 15 23 27 28 28 28 26 26
13 13 10 9 7 6 6 6 6 5 5 6 4 2 5 5 4 4 4 3 3 4 6 8 7 8 8 9 8 7 6 5 8 9 7 7 7 5 5 5 5 6 8 8 4 6 9 6 7 14 15 14 18 21 19 17 15 17 22 23 21 17 15 13 10 8 9 8 7 10 9 8 8 9 10 8 7 10 11 11 13 18 25 29 29 27 26 26
14 13 10 9 7 6 6 6 5 4 5 4 1 4 6 4 4 5 4 4 4 7 6 5 7 7 7 9 8 6 7 8 9 10 8 7 7 5 3 4 3 5 8 9 6 5 6 4 7 11 13 15 17 19 21 20 14 14 21 22 17 13 13 13 10 8 9 8 8 12 12 13 12 9 8 9 8 11 12 12 14 16 20 25 27 26 26 27
14 13 10 8 8 7 6 6 5 3 5 4 3 5 6 4 4 4 4 4 4 5 3 2 6 7 6 8 8 7 8 10 10 10 9 7 6 6 4 3 3 2 7 11 7 5 7 6 7 9 10 14 18 18 19 22 19 13 14 18 18 15 15 15 12 9 9 8 8 11 13 16 16 11 9 9 9 11 12 12 14 16 17 19 23 26 28 29
14 11 8 8 8 6 5 5 4 3 2 3 3 4 6 5 4 4 4 4 3 2 2 2 6 7 7 6 7 8 7 7 10 10 9 7 5 6 4 3 3 1 6 12 8 5 6 8 7 11 8 12 18 20 19 22 23 17 11 15 20 18 16 18 18 14 10 8 8 9 12 15 16 12 10 10 10 10 12 12 12 16 19 19 21 27 31 32
14 8 7 10 8 6 5 4 3 2 1 2 3 5 6 5 5 5 5 4 5 4 2 3 5 6 7 6 6 7 5 5 8 8 7 7 6 6 4 5 4 1 5 11 9 7 7 8 7 9 9 12 17 21 20 18 23 24 17 16 20 19 16 15 19 21 16 10 7 8 9 10 12 14 14 14 13 11 11 12 12 14 20 22 22 26 31 33
13 7 8 11 9 7 6 3 3 3 2 3 5 5 6 5 4 5 5 5 6 5 5 5 5 6 7 6 6 7 6 5 7 6 6 8 7 5 5 5 6 5 5 6 6 7 8 9 9 6 10 13 14 19 20 15 18 24 23 20 19 20 18 13 14 19 20 14 9 8 8 6 9 12 14 16 17 16 14 14 13 14 19 23 23 23 28 33
10 6 9 11 9 9 6 3 3 3 3 4 6 5 5 5 4 3 3 4 4 4 5 5 5 6 5 6 6 7 7 5 6 6 5 8 8 6 6 5 4 6 4 2 4 6 7 8 9 9 10 8 6 13 21 18 15 17 20 21 19 20 22 18 14 15 19 18 15 13 9 6 8 10 12 15 17 18 19 17 15 15 18 22 22 21 24 31
7 7 10 10 9 9 7 4 4 4 4 6 6 5 4 4 3 3 2 2 2 3 3 3 4 4 4 6 6 6 7 6 6 6 5 7 9 8 7 5 3 3 3 1 2 3 5 7 8 10 9 6 4 9 16 20 19 17 18 19 18 19 21 21 18 16 18 19 17 14 10 8 10 11 12 15 15 17 20 21 18 14 15 18 18 19 22 27
9 9 10 9 8 8 6 4 5 5 5 6 5 4 3 3 3 3 2 1 2 3 3 3 3 4 4 5 5 5 7 6 5 7 7 6 7 8 6 3 3 2 1 3 3 3 5 6 7 10 9 8 9 9 12 19 21 18 17 17 19 18 16 17 16 13 15 18 18 16 12 9 10 10 12 14 13 14 17 20 18 14 13 16 18 18 20 24
11 9 8 8 8 8 6 6 6 5 6 6 5 3 3 1 2 3 2 2 2 2 3 2 3 5 5 4 4 4 6 5 6 8 7 5 4 6 5 3 3 3 3 3 3 2 4 5 6 10 11 7 7 6 9 16 17 14 12 13 21 23 17 17 18 15 15 16 17 19 15 10 10 12 13 15 13 12 15 16 15 13 11 14 18 19 20 23
9 7 6 7 7 7 7 7 6 5 6 6 4 3 3 2 1 2 2 2 1 2 3 3 3 3 3 3 4 3 3 4 6 7 7 4 3 4 4 2 3 3 3 4 3 2 3 5 4 7 9 4 1 1 6 11 10 11 9 7 14 22 20 18 19 19 18 15 15 18 16 11 11 14 14 15 14 14 15 16 14 13 12 13 17 19 20 22
10 8 8 8 7 6 6 7 6 5 6 5 3 2 2 2 1 1 1 1 2 2 2 1 2 2 2 3 3 2 3 4 5 7 7 6 4 2 2 1 1 3 3 3 3 3 3 5 3 1 4 3 2 3 6 8 6 6 6 5 8 15 20 20 20 17 15 15 14 14 15 15 14 14 14 12 12 14 17 17 18 18 18 18 18 19 20 21
11 11 11 10 8 7 7 8 7 5 5 4 3 2 2 2 1 1 0 0 1 2 1 1 1 2 2 3 3 3 4 5 5 7 6 5 4 2 1 1 2 1 1 2 3 5 4 6 5 2 3 5 5 4 5 4 3 3 3 3 5 9 14 16 15 12 10 13 12 9 11 14 14 16 17 13 11 12 14 16 20 22 21 22 21 20 20 21
13 12 11 10 8 7 8 9 8 6 4 2 2 2 2 2 2 2 2 1 1 2 2 1 1 1 2 2 3 4 5 4 5 7 7 5 4 3 2 2 1 3 2 1 4 6 6 6 7 5 4 4 4 4 4 3 2 2 2 1 3 5 8 9 9 9 9 10 11 9 10 11 12 16 18 15 13 13 12 13 19 22 24 24 23 21 21 21
13 12 11 10 8 7 8 8 7 6 4 2 2 3 3 2 2 4 5 3 2 2 2 2 3 4 2 2 3 4 5 4 4 6 8 6 4 4 3 3 2 2 2 1 3 5 7 8 8 7 7 5 2 1 3 3 2 3 2 2 1 3 4 3 4 8 7 5 7 10 10 10 13 15 15 13 13 14 13 13 16 21 23 23 22 22 23 23
13 12 10 9 9 9 9 8 7 5 4 3 3 3 3 2 2 3 4 4 4 4 4 5 6 5 2 2 3 4 6 6 5 6 8 7 6 7 5 4 3 1 1 1 0 2 3 8 9 7 10 10 4 1 2 3 4 5 2 3 2 1 1 2 3 7 7 5 6 7 7 7 11 14 15 13 12 13 13 12 15 20 22 21 22 23 24 24
14 12 11 9 9 10 10 9 8 5 4 4 4 3 3 2 1 1 1 1 3 5 7 7 7 5 2 2 4 5 7 8 8 8 8 7 7 7 7 5 4 3 1 1 1 0 0 4 8 8 11 13 9 5 4 5 7 6 3 1 2 1 0 3 4 6 7 8 7 6 7 8 10 11 13 14 14 13 13 12 14 19 20 21 22 23 24 23
Wind_Direction
339 334 330 323 313 300 287 275 263 254 247 244 241 238 237 237 237 236 237 239 240 240 236 233 229 224 221 220 222 221 219 214 210 205 200 208 212 212 211 212 215 215 216 211 205 204 201 198 196 187 165 168 255 207 219 224 204 170 159 161 153 145 140 144 148 152 163 159 154 156 155 155 159 160 159 156 159 163 165 163 156 155 150 151 162 169 166 159
346 342 338 333 328 319 306 293 282 272 261 252 245 241 238 237 237 237 236 236 237 239 239 236 232 227 221 219 219 220 221 215 211 204 203 212 214 211 209 210 213 215 214 204 195 195 192 187 182 174 149 138 151 173 208 191 166 171 147 145 137 120 132 146 159 156 159 160 154 153 154 157 162 163 160 160 162 159 159 160 157 156 150 149 162 170 167 159
347 344 343 340 334 329 323 313 301 288 279 267 256 246 240 237 237 238 237 236 235 236 237 237 234 230 224 220 216 217 220 217 213 207 208 214 214 211 207 208 211 213 210 195 186 187 182 175 171 171 151 149 175 162 183 153 145 158 125 130 126 111 128 147 161 154 153 159 153 150 153 159 162 161 160 157 152 147 148 157 161 160 154 151 163 170 165 159
345 343 342 342 338 332 328 324 318 306 295 284 274 260 248 239 236 237 237 237 235 234 235 235 235 231 227 222 215 214 215 220 218 210 211 213 212 209 202 206 209 209 207 195 189 186 181 176 171 170 154 162 185 145 154 156 154 159 112 125 132 128 140 153 157 151 148 154 153 151 153 159 161 160 158 147 137 141 143 150 159 159 154 150 161 168 163 157
340 339 337 337 337 335 331 327 323 317 311 300 289 278 265 249 238 236 236 236 235 234 233 233 234 231 228 223 217 214 207 217 222 212 212 211 207 204 196 201 204 205 204 196 195 186 179 182 175 168 158 171 173 126 168 173 138 120 87 122 131 136 152 157 155 154 152 154 156 153 154 161 161 158 156 141 130 145 148 148 153 158 154 149 158 164 159 155
335 334 333 334 335 334 333 329 325 321 317 312 304 293 282 266 247 237 234 235 234 233 233 232 232 230 229 223 218 214 201 207 217 211 212 209 202 199 194 199 200 201 200 196 198 187 179 183 174 167 164 173 175 147 176 167 134 125 110 137 138 147 155 156 156 159 158 156 158 155 158 162 158 159 161 150 138 147 152 150 151 156 155 151 156 159 155 154
333 332 333 334 335 332 330 327 323 319 315 312 307 300 291 278 261 246 237 234 233 233 232 231 230 229 228 224 218 215 209 213 214 208 211 206 198 196 195 199 197 199 200 196 198 188 181 183 174 169 166 172 178 167 159 152 146 138 141 158 152 157 160 160 160 161 160 160 165 162 159 160 160 165 165 160 150 153 158 153 148 153 154 153 154 155 155 154
334 333 335 335 332 327 324 319 314 309 305 303 299 295 290 280 266 255 244 237 233 232 232 231 229 227 227 224 219 214 215 218 214 208 210 205 198 197 197 200 197 198 199 195 196 189 182 183 174 166 172 188 177 169 152 128 129 134 141 165 158 162 167 167 166 166 166 167 171 164 159 158 162 169 166 161 158 159 160 150 146 152 152 154 156 156 158 157
340 337 334 330 325 320 316 312 308 303 298 294 292 288 285 278 268 259 249 242 235 231 231 231 229 225 223 223 218 214 216 216 212 209 208 203 199 198 196 198 198 198 197 193 193 188 183 181 175 168 180 193 172 165 156 127 138 156 151 160 158 166 171 169 169 173 174 173 170 164 163 162 163 168 165 161 160 161 159 147 147 151 151 155 157 156 159 161
344 337 330 324 319 316 313 311 308 302 296 290 287 283 280 276 268 261 253 247 238 230 229 230 230 225 221 219 213 213 217 213 210 209 206 202 199 198 196 194 195 197 198 195 191 187 184 180 180 177 179 183 167 166 163 141 174 169 151 160 160 165 174 170 168 174 177 175 171 168 169 167 161 161 164 165 161 161 159 148 148 150 152 156 157 159 162 163
342 334 329 324 321 319 317 316 312 307 301 294 289 282 277 273 267 262 256 253 243 231 227 229 230 226 222 216 208 211 215 211 210 208 206 201 198 197 195 192 192 192 198 197 190 188 184 180 181 179 173 173 166 172 174 158 165 162 147 158 161 165 178 171 164 172 176 171 169 171 172 167 158 158 169 168 161 163 162 151 151 151 154 157 157 163 165 166
339 334 331 329 328 327 323 320 316 314 311 307 301 290 279 271 263 257 255 256 251 236 227 228 229 228 225 218 212 212 212 210 210 208 205 200 197 197 194 192 190 189 194 196 192 189 186 182 179 176 171 165 159 182 190 172 160 158 151 154 166 167 177 170 160 169 174 168 168 170 167 161 157 162 169 168 163 163 160 154 156 154 155 159 161 165 168 170
338 336 336 336 335 332 327 323 319 318 316 314 310 302 293 278 262 252 248 249 250 241 227 226 228 228 226 222 217 212 209 209 209 208 203 198 196 197 195 193 191 188 190 192 191 188 186 184 179 179 178 166 169 191 191 180 164 161 162 164 170 168 178 171 158 169 178 170 168 164 156 159 164 166 166 168 168 164 161 159 160 158 159 162 164 167 170 171
339 339 340 340 337 334 331 328 323 320 317 314 309 304 301 290 269 248 236 235 240 238 226 222 223 224 224 224 219 210 207 207 208 205 200 196 195 197 196 194 194 191 191 190 188 184 184 186 182 180 181 175 179 181 177 183 172 171 185 183 184 182 184 174 159 172 180 173 168 160 157 169 170 167 168 170 169 167 165 164 164 163 164 165 166 168 170 171
341 342 343 341 339 337 335 331 327 322 318 313 308 302 295 289 275 245 228 222 222 226 224 217 217 218 218 220 217 211 207 204 206 203 196 193 192 195 197 197 197 194 194 192 189 184 181 184 183 179 184 184 179 166 169 188 186 189 198 195 195 191 177 173 170 178 181 173 167 161 163 178 174 167 170 172 170 169 169 168 168 168 168 168 169 171 172 172
344 344 343 342 341 339 335 333 330 327 324 319 313 307 292 275 255 228 220 215 212 217 218 214 212 205 204 213 214 210 205 202 203 202 198 193 191 192 194 197 198 197 197 194 191 186 180 182 184 182 182 183 182 180 183 194 199 200 209 207 190 188 173 172 180 186 186 176 169 165 159 172 176 169 170 175 173 171 172 173 172 173 171 170 172 174 175 175
346 344 343 343 341 338 336 336 335 334 333 331 327 322 293 246 219 207 210 210 211 213 210 209 204 193 193 204 206 205 204 202 202 201 200 195 191 192 193 196 198 197 199 197 190 187 183 183 186 186 181 181 192 197 195 204 205 199 215 220 181 182 178 175 188 189 186 183 178 171 156 163 177 173 170 176 178 175 175 176 178 178 175 172 175 178 178 179
345 343 343 343 341 338 338 339 341 341 343 347 355 5 7 200 199 201 204 209 210 205 212 208 186 178 191 193 194 200 201 201 203 202 202 199 193 191 193 196 197 198 200 199 192 186 185 184 184 189 190 190 195 197 201 215 215 207 215 217 184 173 171 176 193 191 184 185 184 177 165 163 175 176 176 178 181 181 179 179 181 182 180 176 178 180 181 181
343 343 343 343 341 338 340 343 346 348 354 7 31 62 84 120 159 208 211 208 202 185 224 206 174 167 190 194 192 195 196 198 202 204 205 201 195 191 193 194 194 198 199 197 194 187 183 182 185 194 199 199 199 200 208 222 222 216 208 208 192 176 168 167 180 187 187 187 188 186 177 173 178 180 183 182 184 184 181 182 184 186 186 182 181 183 182 182
342 343 344 345 342 339 342 347 352 357 12 34 68 84 73 64 49 336 254 208 200 194 203 191 177 175 180 190 190 185 187 193 199 206 208 201 196 193 194 195 190 191 194 193 193 190 184 185 195 197 197 202 204 207 219 227 216 208 195 198 215 194 171 152 167 188 190 188 193 193 187 190 192 185 184 183 185 186 182 184 187 188 190 186 185 184 181 183
342 345 345 346 343 342 345 349 360 12 30 52 75 89 75 74 72 355 294 159 223 205 197 182 177 179 179 182 182 175 175 183 193 203 207 201 195 194 197 197 189 187 187 183 190 191 188 196 201 197 197 200 200 204 209 208 204 196 193 198 212 216 184 146 165 178 182 186 188 189 188 194 196 188 187 185 186 187 184 185 188 190 192 189 186 186 182 184
345 347 347 348 347 348 353 2 22 34 50 61 67 83 82 84 90 71 97 87 6 193 179 173 167 172 178 177 177 173 167 173 187 194 202 198 185 189 202 196 188 186 181 176 185 188 192 204 201 197 206 201 195 199 197 191 197 191 194 199 201 202 182 168 176 172 185 195 184 181 184 193 199 193 192 189 187 190 187 187 189 191 194 192 188 187 185 186
348 350 349 353 357 8 21 34 50 57 65 69 74 83 83 87 85 82 103 89 44 131 144 155 156 157 167 172 173 169 161 169 186 189 191 185 178 189 197 189 183 185 183 180 183 185 195 206 203 206 209 201 199 203 198 196 203 198 200 206 204 195 190 194 193 186 194 201 189 186 185 194 206 199 196 194 189 192 192 189 190 193 196 195 191 190 189 190
352 353 354 6 31 51 59 63 65 68 71 75 81 83 84 90 91 98 104 95 95 121 130 142 148 152 163 171 169 161 161 175 185 191 184 169 175 190 187 181 182 187 188 188 188 189 196 200 202 212 205 192 198 204 200 203 207 206 204 208 208 202 205 215 208 198 198 204 198 191 191 203 212 204 197 195 191 194 196 192 190 193 196 195 195 194 193 194
355 358 9 45 75 77 77 74 71 73 74 76 80 81 86 88 100 110 104 101 104 101 109 125 132 147 160 166 166 161 166 174 175 192 188 165 168 182 180 178 180 189 191 188 192 196 205 208 204 209 204 192 196 204 205 206 210 213 206 206 201 199 204 203 207 195 190 209 206 192 193 209 216 210 200 200 200 198 197 195 193 192 193 195 197 196 195 196
360 13 55 87 90 87 82 76 74 74 72 74 77 81 86 91 111 110 101 114 115 89 95 110 107 143 154 160 168 163 163 177 179 185 183 169 169 176 183 180 175 188 188 181 192 199 211 222 213 205 202 200 201 207 209 206 215 221 206 203 185 184 195 186 194 191 189 213 211 199 200 207 213 211 210 211 206 200 199 197 195 193 193 195 197 197 196 196
11 57 97 98 93 88 82 76 74 73 71 76 84 87 87 102 122 113 102 124 114 87 105 111 105 147 146 153 166 164 171 188 186 179 178 178 178 173 177 179 173 180 179 175 194 203 202 210 208 201 200 206 207 210 214 208 211 212 194 202 193 182 191 185 196 208 210 224 201 197 207 230 233 211 208 210 200 198 202 198 194 194 195 195 196 198 198 197
38 102 110 100 93 87 81 79 76 74 77 85 94 91 92 117 129 119 109 113 97 81 96 105 119 133 125 132 153 168 196 189 182 183 181 175 173 163 168 186 185 181 180 180 190 206 210 205 203 200 200 209 210 212 217 207 210 223 193 195 192 180 185 193 208 224 242 255 217 198 204 236 254 192 191 199 196 198 203 200 196 194 195 196 197 198 199 199
86 122 115 101 95 89 83 80 76 77 84 93 98 92 102 122 122 115 316 85 94 90 100 105 115 128 123 114 122 145 169 166 177 186 177 165 167 164 173 188 184 181 188 194 200 215 216 209 207 205 205 212 211 212 219 208 213 235 212 190 193 190 182 188 214 244 265 260 245 207 197 223 231 173 183 197 198 201 201 200 199 197 196 198 198 197 198 201
122 134 122 107 100 92 85 81 81 85 89 91 97 102 111 120 119 120 98 94 100 105 116 117 120 139 139 125 113 124 147 152 159 172 167 165 166 167 178 176 175 188 193 201 214 223 206 205 209 211 211 215 214 216 220 213 215 225 206 191 194 197 193 189 212 261 265 250 248 217 199 221 228 173 191 209 210 207 203 201 201 198 197 199 200 199 198 202
139 145 131 116 107 97 90 88 90 95 94 92 96 100 102 101 68 16 85 101 115 111 121 133 139 153 158 159 144 132 137 143 145 157 163 169 168 165 176 172 174 191 193 206 218 222 219 214 213 215 217 214 212 217 218 214 211 210 203 197 196 199 207 217 216 237 255 235 236 222 200 221 240 185 189 218 222 213 209 207 202 198 197 198 200 200 199 202
150 153 140 125 115 103 95 94 100 106 100 98 96 88 88 90 52 47 79 110 151 123 151 159 154 165 176 177 159 144 140 137 149 163 167 173 177 175 181 182 181 191 204 207 207 216 223 223 219 219 222 214 208 211 211 206 202 202 202 199 201 203 209 220 217 218 236 224 222 233 203 220 246 234 202 223 229 211 212 215 207 200 199 198 199 200 201 202
157 159 149 133 123 112 106 105 110 109 100 98 89 72 50 58 59 58 69 63 91 142 164 162 160 174 177 178 171 162 156 141 157 173 172 178 183 182 188 189 185 203 221 194 192 209 212 215 218 214 218 213 205 203 200 196 198 200 201 200 204 207 207 217 219 217 227 222 220 224 208 220 233 215 221 238 250 235 215 214 209 203 202 201 199 200 202 203
162 166 155 140 133 122 120 121 117 113 99 83 68 46 17 58 65 64 57 48 78 145 158 158 160 166 170 175 170 169 170 156 164 173 171 180 187 185 192 188 184 203 229 188 201 215 203 206 210 205 211 212 204 204 203 196 199 202 203 206 212 216 216 221 225 221 228 222 199 187 202 222 211 206 223 235 241 246 232 210 206 203 203 204 202 200 201 202
166 170 158 145 143 134 135 136 124 126 100 70 44 6 41 71 69 52 47 57 81 123 146 149 149 157 160 160 165 170 172 157 166 172 171 182 186 178 179 179 184 199 215 211 201 204 220 238 201 195 203 206 201 204 204 196 201 204 205 213 219 220 224 238 243 228 236 239 197 188 213 233 215 222 230 226 222 222 214 203 202 202 202 203 204 203 201 199
169 171 160 150 149 143 147 143 133 133 101 67 28 42 74 70 60 43 38 62 110 134 150 152 155 166 160 155 167 178 172 155 162 165 159 167 168 156 162 170 181 197 211 225 207 193 220 222 173 189 199 199 201 204 201 198 198 200 207 215 220 221 228 237 236 222 236 255 221 201 221 234 224 232 240 232 209 196 192 193 195 199 204 205 204 204 202 199
172 170 163 155 155 155 157 149 143 134 92 66 36 99 91 70 59 56 43 50 118 152 166 166 164 170 161 156 163 173 170 161 165 167 157 155 153 139 151 173 175 189 201 217 227 224 238 216 166 189 199 193 196 201 203 207 206 201 210 214 211 216 228 227 224 221 226 245 232 209 217 228 220 218 231 231 209 192 189 189 191 195 202 205 207 206 204 200
173 169 166 164 165 164 159 146 135 108 83 86 117 118 103 74 60 63 47 43 102 154 197 199 161 165 170 161 152 160 172 168 172 174 162 158 155 136 140 177 185 204 192 195 207 223 246 241 172 174 198 192 188 194 200 208 212 212 218 215 204 207 216 209 214 227 220 228 233 211 215 229 228 220 220 218 207 201 199 198 200 200 201 204 207 207 206 203
172 168 176 180 175 173 168 152 124 81 88 120 120 120 106 80 68 67 49 40 75 127 228 190 161 168 173 162 145 156 178 176 176 179 167 158 151 138 130 144 167 244 184 179 192 203 224 245 188 161 187 192 184 193 200 202 206 210 217 214 208 214 220 212 217 228 227 232 235 216 216 226 226 215 205 205 208 210 208 209 211 209 206 205 205 205 205 205
170 165 197 195 181 180 177 155 112 76 145 146 117 128 121 91 64 59 51 56 76 84 91 136 161 165 159 162 158 157 166 167 172 178 172 162 152 148 143 124 121 119 161 167 185 194 205 245 219 159 172 197 194 199 205 201 201 204 209 210 208 216 224 222 224 228 233 241 234 225 228 218 206 204 209 216 221 221 213 208 210 210 208 207 208 208 205 204
168 164 205 201 187 186 174 144 135 123 123 131 121 128 129 107 77 59 51 57 69 79 84 99 128 138 144 161 166 162 160 160 166 170 172 169 159 150 153 135 107 97 123 153 181 199 204 229 235 192 185 201 197 197 206 208 198 201 209 213 212 214 217 221 223 222 229 238 233 239 246 214 198 214 226 230 227 223 215 205 204 207 207 207 211 211 206 203
166 180 205 197 191 191 170 145 169 140 116 143 138 128 124 111 97 74 54 43 41 60 76 85 105 112 126 145 152 158 156 153 163 161 156 162 163 165 169 163 118 97 109 161 187 206 204 210 237 234 211 212 199 197 206 206 195 200 211 215 216 216 216 222 225 216 222 232 234 245 254 230 224 239 243 240 232 223 217 209 204 205 208 210 213 212 206 201
168 195 199 191 190 186 170 163 170 137 132 151 140 124 119 114 104 83 63 50 45 63 71 72 96 110 123 131 136 152 154 151 158 155 145 147 162 179 177 173 162 107 99 186 203 224 204 203 234 233 219 233 233 210 210 206 202 209 216 217 220 220 218 224 233 232 228 225 224 235 244 226 226 241 248 247 240 229 221 215 212 214 214 214 213 213 207 199
179 185 187 187 183 175 169 171 162 145 142 138 121 108 111 131 146 117 83 114 105 79 72 74 100 125 134 131 136 155 158 157 162 163 157 145 161 184 184 181 195 170 162 194 202 243 223 221 238 226 210 198 188 190 200 202 206 213 215 216 219 221 224 228 235 242 237 229 223 229 238 230 228 239 248 252 246 234 225 219 222 230 228 219 213 211 207 200
184 183 187 191 184 176 179 178 162 154 153 138 122 111 93 95 192 173 135 123 118 93 96 112 122 123 123 124 132 150 157 160 172 173 161 137 156 186 193 201 206 210 229 211 195 227 228 235 244 233 229 213 187 188 187 188 197 203 205 213 216 218 225 230 231 234 235 232 227 231 238 244 248 252 255 258 256 238 222 216 223 236 236 225 218 213 207 201
183 185 189 190 190 190 192 185 167 158 162 152 134 120 103 83 127 173 138 113 145 138 116 126 130 112 114 129 130 139 151 162 178 177 167 155 160 179 180 185 211 220 234 233 219 206 219 234 248 242 244 255 15 74 156 170 189 196 194 204 212 216 222 227 232 236 236 236 234 233 236 244 255 257 257 259 256 244 228 216 217 234 250 247 231 220 212 204
188 193 189 181 184 187 186 180 171 170 176 174 171 162 142 113 79 88 99 117 170 147 98 83 116 107 130 147 144 153 143 150 169 167 165 170 171 176 152 102 302 241 235 239 211 184 212 230 230 223 216 192 79 79 134 156 174 181 185 192 202 214 220 222 230 239 240 241 243 238 232 237 249 254 255 258 254 247 239 225 217 225 244 254 241 224 215 207
197 203 195 183 176 173 179 180 172 170 175 184 209 205 168 165 146 73 14 351 197 166 132 42 82 120 168 162 152 152 140 144 165 165 161 164 171 201 244 46 22 340 271 269 210 193 206 221 214 165 137 144 138 128 122 129 142 140 155 185 192 210 218 218 227 237 235 237 245 248 238 238 243 246 249 257 260 255 246 231 219 214 224 239 239 225 214 210
200 203 200 196 190 182 184 183 169 161 169 179 207 198 169 167 200 231 245 305 308 247 201 167 151 178 191 183 158 150 150 149 162 176 181 175 177 193 212 226 351 24 16 289 230 206 198 207 206 183 152 123 114 135 143 131 162 153 126 143 176 200 213 213 219 224 220 225 233 242 247 242 237 242 247 250 253 257 254 237 224 216 216 225 231 223 213 209
201 202 203 204 204 193 185 181 165 164 184 190 201 206 191 180 221 253 258 249 252 256 211 180 204 203 179 164 164 169 179 166 155 185 191 184 186 187 184 208 232 11 15 319 240 215 205 216 213 191 193 194 109 95 192 184 204 189 129 64 138 196 213 216 219 218 215 220 220 220 228 233 234 238 240 237 236 241 248 241 228 222 218 219 220 216 210 208
205 205 201 197 201 198 195 193 182 177 189 187 201 213 190 195 244 280 278 246 208 204 200 191 206 211 176 148 181 200 208 197 189 196 194 191 197 192 187 195 182 122 49 39 236 207 210 225 223 220 224 215 195 273 227 207 233 215 152 31 8 188 247 308 276 239 235 249 242 220 210 220 230 229 229 236 237 234 241 242 228 221 218 214 213 212 210 210
209 208 202 195 199 201 198 196 192 195 202 200 218 229 182 187 256 52 21 263 205 198 201 199 201 200 186 196 199 202 207 207 210 209 201 203 206 196 197 201 178 161 139 50 22 13 318 234 228 237 239 222 215 245 248 233 240 222 187 305 326 97 57 340 318 276 258 253 251 242 229 229 235 232 229 236 241 240 244 241 225 218 214 210 209 210 211 213
Height
3142 3142 3142 3142 3142 3142 3142 3142 3142 3143 3143 3143 3143 3143 3143 3144 3144 3144 3145 3146 3146 3147 3147 3148 3148 3149 3150 3151 3152 3152 3153 3154 3155 3157 3157 3157 3157 3159 3161 3162 3164 3165 3167 3168 3170 3171 3171 3172 3172 3172 3172 3172 3172 3172 3171 3170 3169 3169 3168 3168 3168 3169 3171 3173 3175 3175 3176 3178 3179 3182 3184 3186 3187 3188 3190 3192 3193 3194 3196 3197 3198 3199 3200 3201 3203 3205 3206 3207
3142 3142 3141 3141 3141 3141 3141 3141 3141 3141 3141 3142 3142 3142 3142 3143 3143 3143 3143 3144 3144 3145 3146 3147 3147 3148 3149 3150 3151 3152 3152 3153 3154 3156 3156 3156 3156 3158 3160 3162 3163 3165 3166 3168 3170 3171 3171 3172 3173 3172 3172 3172 3173 3172 3171 3170 3169 3169 3169 3169 3169 3171 3172 3174 3175 3175 3177 3179 3180 3183 3185 3187 3188 3189 3191 3192 3194 3195 3196 3198 3199 3200 3201 3202 3204 3206 3207 3208
3142 3141 3141 3141 3140 3140 3140 3140 3140 3140 3140 3140 3141 3141 3141 3142 3142 3142 3142 3142 3143 3143 3144 3145 3146 3147 3148 3148 3150 3151 3151 3152 3153 3154 3154 3155 3156 3158 3160 3161 3163 3164 3166 3168 3169 3170 3171 3172 3173 3173 3173 3173 3174 3173 3172 3171 3169 3169 3170 3170 3171 3172 3174 3176 3176 3176 3178 3180 3181 3183 3185 3187 3189 3190 3192 3193 3194 3196 3197 3198 3199 3200 3201 3202 3204 3206 3208 3209
3141 3141 3141 3140 3140 3140 3139 3139 3139 3139 3139 3139 3139 3139 3140 3140 3140 3141 3141 3141 3141 3142 3142 3144 3145 3146 3147 3147 3148 3149 3151 3152 3152 3152 3153 3154 3156 3157 3159 3161 3162 3163 3165 3167 3168 3169 3170 3171 3172 3173 3173 3174 3174 3173 3173 3172 3170 3170 3171 3171 3171 3173 3175 3176 3176 3177 3179 3181 3183 3184 3186 3188 3189 3191 3192 3194 3195 3196 3198 3199 3200 3201 3202 3203 3205 3207 3209 3210
3141 3140 3140 3140 3140 3139 3139 3138 3138 3138 3138 3138 3138 3138 3138 3139 3139 3139 3139 3139 3140 3140 3141 3142 3143 3144 3145 3146 3147 3148 3150 3151 3150 3151 3152 3153 3155 3157 3159 3159 3161 3162 3164 3166 3167 3168 3170 3171 3172 3173 3174 3175 3175 3174 3174 3173 3171 3172 3172 3172 3172 3174 3175 3176 3176 3178 3180 3182 3184 3186 3187 3188 3190 3191 3193 3194 3196 3197 3198 3199 3200 3202 3203 3204 3206 3208 3210 3211
3140 3140 3140 3139 3139 3139 3138 3138 3138 3137 3137 3137 3137 3137 3137 3137 3138 3138 3138 3138 3138 3139 3140 3140 3141 3142 3144 3145 3146 3147 3149 3148 3148 3150 3151 3152 3154 3156 3158 3158 3160 3161 3163 3165 3166 3168 3169 3170 3172 3173 3174 3176 3176 3175 3175 3173 3172 3173 3173 3172 3173 3174 3175 3176 3177 3178 3180 3182 3184 3187 3188 3189 3190 3192 3193 3195 3196 3198 3198 3199 3201 3202 3203 3205 3207 3209 3211 3212
3140 3139 3139 3139 3138 3138 3138 3138 3137 3137 3136 3136 3136 3136 3136 3136 3136 3136 3136 3137 3137 3138 3138 3139 3140 3141 3142 3144 3145 3146 3147 3146 3147 3149 3150 3152 3154 3155 3156 3157 3159 3160 3162 3164 3166 3168 3169 3170 3172 3173 3174 3176 3176 3175 3174 3173 3173 3173 3174 3173 3173 3174 3175 3176 3177 3179 3181 3183 3184 3186 3188 3190 3191 3192 3194 3195 3196 3197 3199 3200 3201 3202 3204 3206 3208 3210 3212 3213
3139 3139 3139 3138 3138 3138 3137 3137 3136 3136 3135 3135 3135 3135 3135 3135 3135 3135 3135 3135 3136 3136 3137 3137 3138 3139 3141 3142 3144 3145 3145 3145 3147 3148 3149 3151 3152 3154 3155 3156 3158 3160 3161 3164 3166 3168 3169 3171 3172 3173 3175 3176 3175 3175 3174 3174 3174 3174 3174 3174 3174 3175 3175 3177 3178 3180 3181 3183 3185 3187 3188 3190 3192 3193 3194 3195 3196 3198 3199 3200 3202 3203 3204 3206 3208 3210 3212 3213
3139 3139 3138 3138 3137 3137 3136 3136 3135 3135 3134 3134 3133 3133 3133 3134 3134 3134 3134 3134 3134 3135 3136 3136 3137 3137 3139 3141 3142 3144 3143 3144 3146 3147 3148 3150 3151 3152 3154 3156 3158 3160 3161 3163 3165 3167 3169 3171 3172 3173 3175 3175 3174 3175 3175 3175 3176 3175 3175 3175 3175 3176 3176 3177 3178 3180 3181 3182 3185 3187 3188 3190 3191 3193 3194 3195 3197 3198 3200 3201 3202 3204 3205 3207 3209 3210 3212 3214
3138 3138 3138 3137 3136 3136 3135 3134 3134 3133 3133 3132 3132 3132 3132 3132 3132 3132 3132 3132 3133 3134 3135 3135 3136 3136 3137 3139 3141 3142 3142 3143 3145 3146 3147 3148 3150 3152 3153 3155 3157 3159 3161 3162 3164 3167 3168 3170 3172 3172 3174 3174 3175 3175 3175 3175 3176 3175 3175 3175 3175 3176 3176 3177 3178 3180 3181 3182 3184 3186 3188 3189 3191 3193 3194 3195 3197 3199 3200 3201 3202 3204 3206 3208 3209 3211 3213 3214
3138 3137 3137 3136 3135 3134 3134 3133 3132 3132 3131 3131 3131 3131 3131 3131 3131 3131 3131 3132 3132 3133 3133 3134 3135 3136 3136 3137 3139 3140 3140 3142 3143 3144 3146 3147 3149 3151 3152 3154 3156 3159 3160 3162 3164 3166 3168 3169 3171 3172 3174 3175 3175 3175 3175 3175 3175 3175 3175 3175 3175 3176 3176 3177 3178 3180 3181 3182 3184 3186 3187 3189 3191 3193 3194 3195 3197 3199 3201 3202 3203 3205 3206 3208 3210 3211 3213 3214
3137 3136 3135 3135 3134 3133 3133 3132 3131 3130 3130 3130 3129 3129 3129 3129 3130 3130 3131 3131 3131 3132 3132 3133 3134 3135 3136 3136 3137 3138 3139 3141 3142 3143 3145 3146 3148 3149 3151 3153 3155 3157 3159 3161 3163 3165 3167 3168 3170 3172 3173 3175 3176 3176 3175 3175 3175 3175 3175 3176 3176 3176 3176 3177 3179 3179 3180 3182 3183 3185 3187 3189 3191 3192 3194 3195 3197 3199 3201 3202 3204 3205 3207 3208 3210 3211 3213 3214
3136 3135 3134 3134 3133 3132 3132 3131 3130 3129 3129 3129 3128 3128 3128 3128 3128 3129 3129 3130 3130 3131 3131 3131 3132 3134 3135 3135 3136 3137 3139 3140 3141 3142 3144 3145 3147 3148 3150 3152 3153 3155 3157 3160 3162 3164 3166 3168 3169 3171 3172 3174 3175 3175 3175 3174 3174 3175 3175 3175 3175 3176 3176 3177 3179 3179 3180 3182 3182 3184 3187 3190 3192 3192 3193 3196 3197 3199 3200 3202 3204 3205 3207 3208 3210 3212 3213 3215
3135 3134 3133 3133 3132 3132 3131 3130 3129 3128 3128 3127 3127 3127 3127 3127 3127 3127 3128 3129 3129 3130 3130 3130 3131 3132 3134 3135 3136 3137 3137 3139 3140 3141 3143 3145 3146 3148 3149 3151 3153 3155 3156 3158 3160 3162 3165 3167 3168 3170 3171 3173 3174 3174 3175 3175 3175 3175 3175 3174 3174 3175 3175 3176 3178 3179 3181 3183 3183 3184 3186 3188 3190 3191 3193 3195 3197 3199 3201 3202 3204 3205 3207 3208 3210 3212 3213 3215
3134 3134 3133 3132 3131 3131 3130 3129 3128 3127 3127 3126 3125 3125 3125 3126 3126 3126 3127 3128 3128 3129 3129 3129 3130 3131 3133 3134 3135 3136 3137 3138 3139 3141 3142 3144 3146 3148 3149 3151 3153 3155 3156 3158 3159 3161 3164 3166 3168 3170 3171 3172 3173 3174 3176 3176 3175 3175 3175 3173 3172 3174 3174 3175 3177 3179 3180 3183 3183 3183 3185 3187 3189 3191 3193 3195 3197 3199 3201 3202 3204 3205 3207 3208 3210 3212 3214 3215
3134 3133 3132 3131 3130 3130 3129 3128 3127 3126 3125 3124 3124 3124 3124 3124 3125 3125 3126 3126 3127 3127 3128 3129 3129 3130 3132 3133 3134 3135 3136 3137 3139 3140 3142 3144 3146 3147 3149 3151 3153 3155 3157 3158 3160 3162 3164 3165 3167 3169 3170 3172 3174 3175 3176 3176 3175 3175 3174 3172 3171 3172 3174 3175 3177 3178 3180 3182 3183 3184 3185 3187 3189 3191 3192 3195 3197 3199 3200 3202 3203 3205 3206 3208 3210 3212 3214 3215
3134 3133 3132 3131 3130 3129 3128 3127 3126 3125 3124 3123 3123 3122 3123 3123 3123 3124 3125 3125 3126 3126 3127 3128 3129 3130 3131 3132 3133 3135 3136 3137 3138 3140 3142 3144 3145 3147 3149 3151 3153 3155 3157 3159 3161 3162 3164 3165 3167 3169 3170 3172 3174 3175 3176 3175 3174 3174 3173 3171 3170 3171 3174 3175 3176 3177 3179 3181 3183 3185 3186 3188 3189 3190 3192 3194 3196 3198 3200 3201 3203 3205 3206 3208 3210 3212 3213 3215
3133 3132 3131 3130 3129 3128 3127 3126 3125 3124 3123 3122 3122 3122 3122 3122 3123 3123 3124 3125 3125 3126 3127 3128 3129 3130 3131 3131 3132 3133 3135 3137 3138 3140 3141 3143 3146 3147 3149 3151 3153 3155 3157 3159 3160 3162 3164 3166 3168 3170 3170 3171 3172 3174 3174 3174 3173 3173 3172 3170 3169 3171 3174 3175 3176 3177 3179 3181 3182 3184 3186 3187 3188 3190 3192 3194 3196 3197 3199 3201 3203 3204 3206 3208 3210 3211 3213 3215
3133 3132 3131 3130 3128 3127 3126 3125 3124 3123 3123 3122 3122 3121 3122 3122 3123 3123 3124 3124 3125 3126 3127 3127 3128 3130 3131 3130 3131 3133 3135 3137 3138 3139 3141 3143 3146 3148 3149 3151 3153 3155 3158 3159 3161 3162 3164 3166 3168 3169 3170 3171 3171 3173 3174 3174 3173 3173 3172 3170 3170 3172 3174 3174 3176 3177 3178 3180 3182 3183 3185 3185 3186 3188 3190 3193 3195 3197 3198 3200 3202 3204 3205 3207 3209 3211 3213 3215
3133 3132 3130 3129 3128 3127 3126 3125 3124 3123 3122 3122 3121 3122 3122 3123 3124 3124 3124 3124 3125 3126 3126 3127 3128 3129 3130 3130 3131 3133 3135 3137 3138 3140 3141 3143 3146 3148 3149 3151 3153 3155 3157 3160 3161 3162 3164 3166 3167 3168 3170 3171 3171 3172 3173 3173 3173 3173 3173 3172 3172 3172 3173 3173 3175 3176 3177 3179 3180 3182 3183 3184 3186 3187 3189 3191 3193 3195 3197 3199 3201 3203 3205 3206 3208 3210 3212 3214
3132 3131 3130 3129 3127 3126 3125 3125 3124 3123 3122 3122 3122 3122 3123 3123 3124 3125 3124 3124 3125 3125 3126 3127 3127 3128 3129 3130 3131 3133 3135 3137 3139 3139 3141 3143 3146 3148 3149 3151 3153 3155 3157 3160 3161 3162 3164 3166 3167 3168 3170 3169 3170 3171 3172 3173 3174 3174 3174 3174 3174 3173 3172 3173 3175 3176 3177 3178 3179 3180 3182 3183 3185 3187 3188 3189 3192 3194 3196 3198 3200 3202 3204 3206 3207 3209 3211 3213
3132 3131 3130 3128 3127 3126 3125 3124 3124 3123 3123 3122 3122 3122 3123 3123 3124 3124 3124 3125 3125 3125 3126 3127 3128 3129 3130 3131 3132 3134 3136 3138 3139 3140 3141 3143 3145 3148 3149 3151 3153 3155 3157 3159 3160 3162 3164 3165 3167 3168 3167 3166 3167 3169 3171 3173 3174 3175 3175 3175 3175 3174 3173 3174 3176 3177 3177 3178 3178 3179 3181 3183 3184 3186 3187 3188 3191 3193 3195 3197 3199 3201 3203 3205 3207 3208 3210 3212
3132 3131 3129 3128 3127 3126 3125 3125 3124 3124 3123 3123 3123 3123 3123 3124 3124 3124 3124 3125 3126 3126 3126 3127 3128 3130 3131 3132 3133 3135 3138 3139 3139 3140 3141 3143 3145 3147 3148 3151 3154 3156 3157 3158 3160 3162 3164 3165 3166 3165 3165 3166 3169 3170 3171 3173 3174 3175 3175 3175 3175 3175 3174 3174 3175 3177 3178 3178 3178 3179 3180 3182 3183 3185 3187 3188 3190 3192 3194 3196 3198 3200 3202 3204 3206 3208 3209 3211
3132 3131 3129 3128 3127 3126 3126 3125 3125 3124 3124 3124 3124 3124 3124 3124 3124 3124 3124 3126 3128 3127 3127 3128 3129 3130 3131 3132 3134 3136 3139 3140 3140 3140 3141 3143 3145 3146 3148 3151 3154 3155 3156 3158 3160 3162 3163 3164 3164 3163 3165 3168 3170 3170 3172 3173 3174 3174 3175 3176 3175 3175 3175 3175 3174 3176 3177 3177 3178 3179 3179 3180 3181 3183 3185 3187 3188 3190 3192 3195 3197 3199 3201 3203 3205 3207 3209 3210
3132 3131 3129 3128 3127 3127 3127 3126 3126 3125 3125 3125 3125 3125 3125 3125 3125 3125 3125 3127 3130 3130 3130 3130 3131 3131 3132 3133 3135 3137 3139 3141 3141 3141 3142 3143 3146 3147 3149 3151 3154 3155 3156 3158 3160 3162 3162 3161 3161 3163 3165 3168 3169 3171 3172 3173 3174 3174 3174 3175 3175 3176 3176 3176 3175 3176 3177 3177 3177 3178 3179 3179 3180 3182 3183 3184 3186 3188 3191 3193 3195 3197 3200 3202 3204 3205 3208 3209
3132 3131 3130 3129 3128 3128 3127 3127 3127 3127 3127 3126 3126 3126 3126 3126 3126 3126 3126 3128 3131 3131 3132 3132 3132 3133 3133 3134 3136 3137 3140 3141 3141 3142 3142 3144 3146 3147 3149 3151 3153 3155 3156 3158 3160 3162 3160 3159 3161 3164 3166 3168 3169 3171 3172 3172 3174 3174 3173 3174 3175 3176 3176 3176 3176 3176 3177 3176 3176 3177 3178 3179 3180 3181 3181 3182 3183 3186 3189 3191 3193 3196 3198 3200 3202 3204 3206 3208
3132 3131 3130 3130 3129 3129 3128 3128 3128 3128 3128 3128 3127 3127 3127 3127 3127 3127 3126 3127 3130 3132 3133 3133 3133 3133 3134 3135 3136 3138 3140 3140 3140 3142 3143 3144 3145 3147 3149 3151 3153 3154 3155 3158 3160 3159 3158 3159 3161 3164 3166 3168 3169 3171 3171 3172 3174 3173 3172 3174 3175 3176 3176 3176 3176 3176 3176 3175 3175 3176 3178 3181 3180 3177 3178 3180 3182 3185 3188 3189 3191 3194 3196 3198 3201 3203 3205 3207
3132 3132 3131 3131 3130 3130 3129 3129 3129 3129 3128 3128 3128 3128 3128 3128 3128 3128 3126 3127 3131 3133 3133 3134 3133 3134 3134 3135 3137 3138 3139 3139 3141 3142 3143 3144 3146 3148 3150 3151 3153 3153 3154 3157 3158 3157 3158 3160 3162 3163 3166 3167 3168 3171 3171 3171 3173 3173 3172 3174 3176 3176 3176 3177 3177 3176 3176 3175 3174 3175 3178 3179 3177 3175 3176 3178 3180 3183 3185 3187 3189 3192 3194 3197 3199 3202 3204 3206
3132 3132 3132 3131 3131 3130 3130 3130 3130 3129 3129 3129 3129 3129 3129 3128 3129 3128 3126 3128 3132 3134 3134 3134 3134 3135 3136 3137 3138 3138 3139 3140 3142 3142 3143 3145 3146 3148 3150 3151 3153 3154 3154 3156 3157 3157 3158 3160 3161 3163 3165 3167 3168 3170 3170 3170 3173 3172 3173 3174 3176 3176 3177 3177 3177 3176 3176 3175 3173 3173 3176 3176 3175 3174 3175 3176 3178 3180 3183 3185 3188 3190 3193 3195 3198 3200 3203 3205
3133 3133 3132 3132 3131 3131 3131 3131 3130 3130 3130 3129 3129 3129 3129 3129 3129 3128 3127 3130 3134 3134 3134 3135 3136 3136 3137 3138 3139 3140 3140 3141 3141 3142 3144 3146 3147 3148 3149 3150 3152 3154 3154 3155 3157 3157 3156 3157 3159 3161 3164 3166 3167 3168 3168 3170 3171 3172 3173 3175 3176 3176 3177 3177 3177 3177 3177 3174 3172 3172 3174 3175 3173 3173 3175 3175 3176 3178 3181 3183 3186 3188 3191 3194 3196 3199 3201 3203
3133 3133 3133 3132 3132 3132 3131 3131 3131 3131 3131 3130 3130 3130 3130 3130 3129 3127 3129 3133 3134 3134 3135 3136 3136 3137 3138 3139 3139 3140 3141 3142 3142 3143 3145 3146 3147 3148 3149 3150 3152 3153 3155 3155 3156 3156 3157 3157 3159 3160 3162 3164 3166 3167 3167 3168 3170 3172 3173 3175 3176 3176 3177 3177 3177 3178 3176 3173 3172 3172 3174 3174 3172 3173 3175 3174 3175 3177 3179 3181 3184 3186 3189 3192 3195 3197 3200 3202
3133 3133 3133 3133 3132 3132 3132 3132 3132 3132 3132 3132 3131 3131 3131 3130 3130 3130 3132 3134 3134 3135 3136 3136 3137 3137 3138 3139 3140 3140 3142 3142 3143 3144 3145 3146 3147 3148 3149 3150 3151 3151 3152 3153 3154 3155 3156 3157 3158 3159 3160 3162 3165 3166 3166 3167 3169 3171 3173 3174 3175 3175 3176 3175 3174 3174 3173 3172 3172 3173 3174 3174 3172 3173 3174 3173 3174 3176 3178 3179 3182 3185 3188 3190 3193 3196 3198 3200
3133 3133 3133 3133 3133 3133 3133 3133 3133 3133 3133 3133 3132 3132 3131 3130 3132 3133 3134 3134 3134 3135 3135 3136 3137 3137 3138 3139 3140 3141 3141 3142 3143 3144 3145 3146 3147 3148 3149 3149 3149 3150 3149 3150 3152 3153 3154 3155 3157 3158 3159 3160 3162 3164 3164 3166 3167 3169 3170 3171 3172 3171 3173 3173 3171 3170 3170 3170 3172 3174 3174 3173 3172 3172 3173 3173 3174 3176 3177 3179 3181 3184 3187 3190 3193 3195 3197 3199
3133 3133 3133 3133 3133 3133 3133 3133 3133 3133 3134 3134 3133 3133 3132 3132 3134 3135 3135 3135 3135 3135 3135 3136 3137 3137 3138 3139 3139 3140 3141 3142 3143 3144 3145 3146 3146 3147 3148 3149 3149 3150 3150 3150 3151 3150 3150 3151 3152 3155 3157 3157 3160 3162 3163 3165 3166 3167 3169 3170 3169 3168 3169 3170 3167 3168 3168 3168 3170 3173 3173 3170 3170 3171 3172 3173 3174 3175 3177 3178 3180 3183 3186 3189 3192 3194 3196 3198
3133 3133 3133 3133 3133 3134 3134 3134 3134 3134 3134 3134 3134 3134 3134 3134 3135 3135 3135 3135 3135 3136 3136 3136 3137 3138 3138 3139 3140 3140 3141 3141 3143 3144 3144 3145 3146 3146 3147 3149 3149 3150 3151 3150 3150 3150 3150 3149 3149 3152 3154 3155 3158 3161 3163 3165 3165 3167 3168 3168 3167 3166 3168 3168 3167 3168 3170 3168 3168 3171 3171 3169 3169 3170 3171 3172 3173 3175 3177 3178 3179 3181 3184 3187 3190 3192 3194 3196
3133 3133 3134 3134 3134 3134 3134 3134 3134 3135 3135 3135 3135 3135 3135 3136 3136 3136 3136 3135 3135 3136 3136 3136 3137 3138 3138 3139 3140 3141 3141 3141 3142 3143 3144 3145 3146 3147 3148 3148 3149 3149 3150 3150 3149 3150 3150 3149 3149 3151 3153 3155 3157 3159 3161 3163 3163 3165 3165 3164 3165 3167 3169 3169 3168 3169 3172 3170 3167 3167 3169 3169 3170 3170 3171 3171 3173 3174 3176 3177 3178 3180 3182 3185 3188 3191 3193 3195
3132 3133 3134 3134 3134 3134 3134 3134 3135 3135 3135 3136 3136 3136 3137 3137 3136 3136 3136 3135 3135 3136 3136 3136 3136 3137 3137 3138 3139 3141 3141 3141 3142 3142 3144 3145 3146 3147 3148 3148 3148 3148 3149 3149 3149 3149 3148 3148 3149 3151 3152 3154 3156 3158 3160 3161 3162 3162 3163 3163 3166 3168 3168 3169 3168 3168 3170 3170 3166 3165 3167 3169 3168 3168 3169 3170 3172 3173 3175 3177 3178 3179 3181 3184 3187 3190 3192 3194
3132 3133 3134 3134 3134 3134 3134 3135 3135 3136 3136 3137 3137 3137 3137 3138 3137 3136 3136 3135 3135 3136 3136 3136 3136 3137 3137 3137 3138 3140 3140 3140 3141 3141 3143 3144 3145 3147 3148 3148 3148 3148 3148 3149 3149 3150 3149 3147 3147 3150 3152 3152 3154 3157 3158 3160 3160 3161 3162 3163 3164 3165 3165 3167 3167 3166 3166 3166 3163 3164 3166 3166 3166 3166 3168 3169 3171 3173 3174 3176 3177 3178 3180 3182 3185 3187 3190 3193
3132 3134 3135 3134 3134 3134 3135 3135 3136 3136 3137 3138 3138 3137 3137 3138 3137 3136 3136 3136 3136 3137 3137 3136 3137 3137 3138 3137 3139 3140 3140 3139 3140 3141 3142 3144 3145 3146 3148 3148 3148 3147 3147 3148 3149 3150 3150 3147 3145 3149 3152 3152 3153 3155 3155 3156 3158 3160 3161 3161 3162 3162 3162 3164 3164 3163 3163 3163 3163 3163 3162 3163 3164 3166 3168 3169 3170 3171 3173 3174 3176 3177 3179 3180 3182 3184 3187 3190
3132 3135 3135 3134 3134 3135 3135 3135 3136 3137 3138 3138 3138 3138 3138 3138 3138 3137 3136 3136 3136 3137 3137 3137 3137 3138 3138 3138 3139 3140 3140 3140 3141 3141 3143 3144 3145 3146 3147 3147 3147 3147 3146 3147 3148 3149 3150 3148 3145 3146 3150 3151 3151 3151 3152 3153 3156 3158 3159 3159 3160 3161 3161 3162 3162 3162 3161 3161 3162 3161 3159 3159 3162 3164 3166 3168 3169 3170 3171 3173 3174 3176 3177 3179 3180 3181 3184 3187
3133 3135 3135 3134 3134 3135 3135 3136 3137 3138 3138 3138 3138 3138 3138 3138 3138 3138 3137 3137 3137 3137 3137 3137 3138 3138 3138 3139 3139 3140 3141 3141 3142 3142 3143 3144 3145 3146 3147 3146 3146 3147 3147 3147 3148 3149 3149 3148 3146 3145 3147 3148 3148 3149 3150 3151 3152 3155 3157 3157 3158 3159 3160 3160 3159 3159 3161 3161 3160 3160 3158 3158 3161 3163 3164 3166 3167 3168 3170 3171 3173 3174 3175 3176 3178 3179 3182 3185
3133 3135 3134 3133 3134 3135 3136 3137 3138 3138 3138 3138 3138 3138 3138 3138 3138 3138 3138 3138 3138 3138 3138 3137 3138 3138 3138 3139 3139 3140 3141 3142 3142 3143 3144 3144 3144 3145 3146 3146 3146 3147 3147 3148 3148 3148 3148 3148 3147 3145 3145 3145 3145 3147 3149 3150 3152 3154 3155 3155 3156 3157 3157 3157 3155 3156 3159 3159 3160 3161 3159 3158 3161 3162 3163 3164 3165 3167 3168 3170 3171 3172 3173 3174 3176 3178 3179 3182
3134 3134 3133 3133 3134 3135 3136 3138 3138 3138 3138 3138 3138 3138 3138 3138 3139 3139 3139 3139 3139 3139 3139 3138 3138 3138 3138 3139 3140 3140 3141 3142 3142 3143 3144 3144 3144 3145 3145 3146 3146 3147 3147 3148 3148 3147 3147 3148 3147 3146 3145 3145 3145 3147 3149 3150 3152 3153 3153 3153 3154 3154 3154 3155 3154 3155 3156 3156 3159 3160 3158 3158 3160 3161 3162 3163 3164 3165 3166 3168 3170 3171 3172 3173 3174 3176 3178 3180
3132 3133 3133 3134 3134 3135 3137 3138 3138 3138 3138 3138 3139 3139 3138 3138 3139 3139 3139 3139 3139 3139 3139 3139 3138 3139 3139 3139 3140 3140 3140 3141 3142 3143 3144 3144 3144 3145 3145 3146 3146 3147 3147 3148 3148 3147 3147 3147 3147 3146 3144 3144 3145 3146 3147 3149 3150 3150 3150 3151 3152 3152 3153 3154 3154 3155 3154 3154 3157 3158 3156 3156 3159 3160 3161 3162 3163 3164 3165 3166 3168 3170 3171 3172 3173 3175 3177 3179
3132 3133 3133 3134 3134 3135 3136 3137 3138 3138 3138 3139 3139 3139 3139 3139 3138 3139 3139 3138 3138 3139 3139 3139 3139 3139 3139 3139 3140 3141 3141 3142 3143 3143 3144 3145 3145 3145 3145 3146 3146 3146 3147 3147 3147 3147 3147 3147 3147 3145 3142 3141 3142 3143 3143 3145 3148 3149 3149 3150 3151 3152 3153 3153 3154 3154 3153 3154 3156 3156 3155 3156 3158 3160 3161 3161 3162 3163 3163 3165 3166 3168 3170 3171 3172 3174 3175 3178
3132 3133 3134 3134 3135 3135 3136 3136 3137 3138 3139 3139 3139 3139 3140 3140 3139 3139 3139 3139 3139 3139 3139 3139 3139 3139 3140 3140 3141 3142 3142 3142 3143 3144 3144 3145 3145 3145 3145 3145 3146 3146 3146 3146 3146 3146 3147 3147 3146 3145 3144 3143 3143 3143 3142 3144 3147 3148 3148 3149 3150 3151 3152 3153 3153 3152 3152 3154 3155 3155 3156 3157 3158 3159 3160 3160 3161 3161 3162 3163 3164 3166 3168 3170 3171 3173 3175 3177
3132 3133 3133 3134 3135 3135 3136 3136 3137 3138 3138 3139 3139 3139 3140 3140 3139 3139 3139 3139 3139 3139 3140 3140 3140 3140 3141 3141 3142 3142 3142 3143 3143 3144 3144 3145 3145 3145 3145 3145 3146 3145 3145 3145 3145 3145 3146 3146 3146 3146 3145 3145 3145 3144 3144 3146 3147 3148 3148 3148 3149 3149 3151 3152 3153 3152 3153 3154 3154 3155 3157 3158 3158 3159 3159 3159 3160 3160 3161 3162 3162 3164 3167 3169 3170 3172 3174 3175
3131 3131 3132 3133 3134 3135 3135 3136 3137 3138 3138 3138 3139 3139 3139 3140 3140 3140 3139 3139 3139 3139 3140 3141 3140 3140 3141 3141 3142 3142 3143 3143 3143 3144 3144 3145 3145 3145 3146 3146 3146 3146 3146 3146 3145 3145 3146 3146 3146 3146 3145 3145 3145 3145 3146 3147 3148 3148 3148 3148 3148 3149 3150 3151 3152 3152 3153 3154 3154 3155 3156 3157 3158 3158 3157 3158 3159 3159 3160 3160 3161 3163 3165 3167 3169 3171 3172 3174
3130 3130 3131 3132 3133 3133 3134 3135 3136 3137 3138 3138 3138 3138 3139 3140 3139 3139 3139 3140 3140 3139 3140 3141 3141 3141 3141 3141 3142 3142 3143 3143 3143 3143 3144 3144 3145 3145 3146 3146 3146 3146 3146 3146 3145 3145 3145 3146 3146 3146 3146 3145 3145 3145 3146 3147 3147 3147 3148 3148 3148 3149 3150 3150 3151 3152 3153 3153 3153 3154 3155 3156 3157 3156 3156 3157 3158 3158 3159 3159 3161 3162 3164 3166 3168 3169 3171 3172
3129 3130 3131 3132 3132 3133 3134 3135 3136 3137 3137 3137 3138 3138 3139 3139 3139 3138 3138 3139 3140 3139 3140 3141 3140 3140 3141 3141 3141 3142 3142 3142 3143 3143 3144 3144 3145 3145 3146 3146 3146 3146 3146 3146 3145 3145 3145 3146 3146 3145 3146 3146 3146 3146 3146 3147 3147 3147 3147 3147 3148 3150 3150 3150 3150 3151 3152 3152 3152 3153 3154 3155 3154 3154 3155 3156 3156 3157 3158 3158 3160 3161 3162 3164 3166 3168 3169 3170
3128 3129 3130 3131 3132 3133 3133 3134 3135 3137 3137 3137 3138 3137 3138 3138 3138 3138 3138 3138 3138 3139 3139 3139 3140 3140 3141 3141 3141 3141 3141 3142 3142 3143 3143 3144 3144 3145 3145 3145 3145 3146 3146 3146 3145 3145 3145 3146 3146 3145 3145 3145 3146 3146 3146 3146 3146 3146 3146 3147 3148 3149 3150 3150 3149 3149 3150 3151 3152 3152 3153 3153 3153 3153 3154 3154 3155 3155 3156 3157 3158 3159 3161 3163 3165 3166 3167 3168
3127 3128 3129 3130 3131 3132 3133 3134 3135 3136 3136 3136 3137 3137 3137 3138 3137 3137 3138 3137 3137 3137 3137 3138 3139 3140 3141 3141 3140 3140 3141 3141 3141 3142 3143 3143 3144 3144 3144 3144 3145 3145 3146 3146 3145 3145 3145 3145 3146 3146 3144 3144 3145 3146 3146 3146 3145 3145 3146 3147 3148 3149 3149 3150 3149 3149 3149 3150 3151 3152 3152 3152 3152 3152 3152 3153 3154 3154 3155 3156 3157 3158 3160 3161 3163 3165 3166 3167